TimeCST,TemperatureF,Dew PointF,Humidity,Sea Level PressureIn,VisibilityMPH,Wind Direction,Wind SpeedMPH,Gust SpeedMPH,PrecipitationIn,Events,Conditions,WindDirDegrees,DateUTC
12:56 AM,52.0,32.9,48,29.70,10.0,West,9.2,19.6,N/A,,Overcast,260,2013-02-26 06:56:00
1:56 AM,52.0,36.9,56,29.65,10.0,WNW,15.0,-,N/A,,Scattered Clouds,290,2013-02-26 07:56:00
2:56 AM,52.0,38.8,61,29.61,10.0,NW,10.4,18.4,0.00,,Clear,310,2013-02-26 08:56:00
3:56 AM,50.0,45.9,86,29.53,6.0,NW,18.4,25.3,0.01,Rain,Light Rain,310,2013-02-26 09:56:00
4:56 AM,48.9,45.9,89,29.54,10.0,WNW,16.1,26.5,0.01,,Mostly Cloudy,300,2013-02-26 10:56:00
5:56 AM,48.9,45.9,89,29.51,10.0,WNW,13.8,20.7,0.00,,Mostly Cloudy,300,2013-02-26 11:56:00
6:56 AM,50.9,45.9,83,29.51,10.0,NNW,13.8,20.7,N/A,,Mostly Cloudy,330,2013-02-26 12:56:00
7:56 AM,50.9,46.9,86,29.51,10.0,NW,10.4,-,N/A,,Overcast,310,2013-02-26 13:56:00
8:56 AM,52.9,46.9,80,29.49,10.0,NW,10.4,25.3,0.00,,Mostly Cloudy,310,2013-02-26 14:56:00
9:22 AM,51.8,46.4,82,29.48,2.5,NNW,12.7,25.3,0.01,Rain,Light Rain,330,2013-02-26 15:22:00
9:29 AM,51.8,48.2,88,29.48,3.0,NNW,12.7,19.6,0.01,,Overcast,340,2013-02-26 15:29:00
9:56 AM,52.0,47.8,86,29.49,10.0,NNW,13.8,21.9,0.02,,Overcast,330,2013-02-26 15:56:00
10:04 AM,53.6,48.2,82,29.47,10.0,NNW,12.7,-,0.00,,Mostly Cloudy,330,2013-02-26 16:04:00
10:56 AM,54.0,47.8,80,29.47,10.0,NNW,17.3,21.9,0.00,,Mostly Cloudy,330,2013-02-26 16:56:00
11:56 AM,54.9,47.8,77,29.46,10.0,North,17.3,27.6,N/A,,Overcast,360,2013-02-26 17:56:00
12:41 PM,53.6,48.2,82,29.44,2.0,NNE,18.4,24.2,0.00,,Overcast,20,2013-02-26 18:41:00
12:56 PM,52.0,48.9,89,29.46,2.0,NNE,15.0,-,0.01,,Overcast,30,2013-02-26 18:56:00
1:00 PM,51.8,50.0,94,29.44,1.2,NNE,13.8,-,N/A,,Overcast,30,2013-02-26 19:00:00
1:09 PM,51.8,50.0,94,29.44,2.0,North,11.5,-,0.01,,Overcast,10,2013-02-26 19:09:00
1:17 PM,51.8,48.2,88,29.45,7.0,NNE,17.3,-,0.01,Rain,Light Rain,20,2013-02-26 19:17:00
1:56 PM,50.9,48.9,93,29.47,5.0,NE,12.7,-,0.01,Rain,Light Rain,40,2013-02-26 19:56:00
2:08 PM,51.8,48.2,88,29.45,2.5,NNE,16.1,23.0,0.01,Rain,Light Rain,30,2013-02-26 20:08:00
2:17 PM,51.8,46.4,82,29.46,4.0,NE,21.9,27.6,0.01,Rain,Light Rain,40,2013-02-26 20:17:00
2:26 PM,51.8,46.4,82,29.46,5.0,NNE,19.6,27.6,0.01,Rain,Light Rain,30,2013-02-26 20:26:00
2:56 PM,50.9,46.9,86,29.49,4.0,NE,18.4,25.3,0.02,Rain,Light Rain,40,2013-02-26 20:56:00
3:56 PM,46.9,38.8,73,29.55,10.0,NE,23.0,31.1,0.00,,Overcast,50,2013-02-26 21:56:00
4:56 PM,45.9,34.9,66,29.57,10.0,NE,12.7,-,0.00,,Overcast,50,2013-02-26 22:56:00
5:56 PM,45.0,34.9,68,29.60,10.0,NE,9.2,-,N/A,,Overcast,40,2013-02-26 23:56:00
6:56 PM,45.0,34.9,68,29.63,10.0,NE,16.1,23.0,N/A,,Overcast,50,2013-02-27 00:56:00
7:56 PM,43.9,34.9,71,29.65,10.0,ENE,10.4,-,N/A,,Overcast,70,2013-02-27 01:56:00
8:43 PM,41.0,37.4,87,29.65,2.5,NE,16.1,25.3,0.00,Rain,Light Rain,50,2013-02-27 02:43:00
8:56 PM,41.0,36.9,85,29.67,10.0,NE,10.4,-,0.00,,Overcast,40,2013-02-27 02:56:00
9:24 PM,41.0,37.4,87,29.66,10.0,NE,15.0,-,0.00,,Overcast,40,2013-02-27 03:24:00
9:56 PM,39.9,36.9,89,29.69,10.0,NE,10.4,-,0.00,Rain,Light Rain,50,2013-02-27 03:56:00
10:33 PM,39.2,35.6,87,29.67,10.0,NE,13.8,20.7,0.00,,Mostly Cloudy,40,2013-02-27 04:33:00
10:46 PM,39.2,35.6,87,29.67,10.0,NE,13.8,18.4,0.00,,Overcast,50,2013-02-27 04:46:00
10:56 PM,39.9,34.9,82,29.70,10.0,NE,13.8,-,0.00,,Overcast,50,2013-02-27 04:56:00
11:34 PM,39.2,35.6,87,29.68,5.0,NE,10.4,-,0.01,Rain,Light Rain,50,2013-02-27 05:34:00